User: anonymous
Location: Fishcreek Rd Observing Site
(41.1865°N, 81.4271°W)
Time: 16:35:10
(UTC-04:00)
Language:

Iridium 75 - Orbit

View from above orbital plane
View from above orbital plane
View from above satellite
View from above satellite

Ground track
Ground track

The orbit data is extracted from the following two-line orbital elements,

1 25346U 98032E   14206.44871885  .00000212  00000-0  68714-4 0  9052
2 25346 086.3989 306.2103 0002291 110.9393 291.5945 14.34213326848060
Epoch (UTC): 25 July 2014 10:46:09
Eccentricity: 0.0002291
inclination: 86.3989°
perigee height: 776 km
apogee height: 779 km
right ascension of ascending node: 306.2103°
argument of perigee: 110.9393°
revolutions per day: 14.34213326
mean anomaly at epoch: 291.5945°
orbit number at epoch: 84806

The dashed part of the orbit path shows where the satellite is in the earth's shadow,  

DLR